User: anonymous   Login
Location: Arleux
(50.3632°N, 2.8721°E)
Time: 21:13:29
(UTC+00:00)
Language:

NOAA 18 - Orbit

View from above orbital plane
View from above orbital plane
View from above satellite
View from above satellite

Ground track
Ground track

The orbit data is extracted from the following two-line orbital elements,

1 28654U 05018A   21125.45207520  .00000081  00000-0  68015-4 0  9998
2 28654  98.9967 190.1396 0014913  47.3256 312.9169 14.12603118822469
Epoch (UTC): 05 May 2021 10:50:59
Eccentricity: 0.0014913
inclination: 98.9967°
perigee height: 840 km
apogee height: 861 km
right ascension of ascending node: 190.1396°
argument of perigee: 47.3256°
revolutions per day: 14.12603118
mean anomaly at epoch: 312.9169°
orbit number at epoch: 82246

The dashed part of the orbit path shows where the satellite is in the earth's shadow,  

DLR